Location: Unspecified
(0.0000°N, 0.0000°E)
Time: 11:42:05
(UTC+00:00)

USA 103 - Pass Details

Date: 11 June 2023
Orbit: 2266 x 38091 km, 62.7° (Epoch: 06 September)

Event Time Altitude Azimuth Distance (km) Brightness Sun altitude
Exits shadow 01:23:38 50° 271° (W) 10,478 7.2 -59.2°
Maximum altitude 12:05:06 80° 255° (WSW) 6,788 8.2 66.9°
Drops below altitude 10° 12:24:26 10° 164° (SSE) 6,076 6.5 66.1°
Sets 12:27:04 0° 162° (SSE) 6,654 6.6 66.0°
